| time (UTC) | temp F | wind direction | speed MPH | gust MPH | rain 1hr in | rain 24hr in | rain mn in | humidity % | barometer mb |
| 20260509181016 | 60 | 360 | 3.0 | 8.0 | 0.00 | 0.00 | 0.00 | 34 | 928.5 |
| 20260509180521 | 60 | 360 | 2.0 | 9.0 | 0.00 | 0.00 | 0.00 | 35 | 928.5 |
| 20260509180042 | 60 | 360 | 5.0 | 9.0 | 0.00 | 0.00 | 0.00 | 34 | 928.5 |
| 20260509175516 | 60 | 360 | 3.0 | 6.0 | 0.00 | 0.00 | 0.00 | 35 | 928.5 |
| 20260509175014 | 60 | 360 | 1.0 | 8.0 | 0.00 | 0.00 | 0.00 | 35 | 928.6 |
| 20260509174548 | 60 | 360 | 1.0 | 6.0 | 0.00 | 0.00 | 0.00 | 35 | 928.6 |
| 20260509174019 | 59 | 360 | 0.0 | 6.0 | 0.00 | 0.00 | 0.00 | 35 | 928.6 |
| 20260509173512 | 59 | 360 | 4.0 | 6.0 | 0.00 | 0.00 | 0.00 | 35 | 928.3 |
| 20260509173042 | 59 | 360 | 3.0 | 6.0 | 0.00 | 0.00 | 0.00 | 35 | 928.4 |
| 20260509172517 | 59 | 360 | 4.0 | 6.0 | 0.00 | 0.00 | 0.00 | 35 | 928.3 |
| 20260509172016 | 59 | 360 | 1.0 | 4.0 | 0.00 | 0.00 | 0.00 | 36 | 928.2 |
| 20260509171544 | 59 | 360 | 2.0 | 4.0 | 0.00 | 0.00 | 0.00 | 36 | 928.2 |
| 20260509171016 | 59 | 360 | 0.0 | 5.0 | 0.00 | 0.00 | 0.00 | 37 | 928.3 |
| 20260509170515 | 59 | 360 | 2.0 | 5.0 | 0.00 | 0.00 | 0.00 | 36 | 928.2 |
| 20260509170046 | 59 | 360 | 2.0 | 6.0 | 0.00 | 0.00 | 0.00 | 36 | 928.2 |
| 20260509165516 | 59 | 360 | 5.0 | 8.0 | 0.00 | 0.00 | 0.00 | 36 | 928.3 |
| 20260509165015 | 59 | 360 | 3.0 | 8.0 | 0.00 | 0.00 | 0.00 | 36 | 928.2 |
| 20260509164536 | 59 | 360 | 2.0 | 5.0 | 0.00 | 0.00 | 0.00 | 36 | 928.2 |
| 20260509164015 | 59 | 360 | 0.0 | 5.0 | 0.00 | 0.00 | 0.00 | 36 | 928.1 |
| 20260509163513 | 59 | 360 | 0.0 | 5.0 | 0.00 | 0.00 | 0.00 | 37 | 928.1 |
| 20260509163046 | 59 | 360 | 3.0 | 6.0 | 0.00 | 0.00 | 0.00 | 37 | 928.1 |
| 20260509162520 | 58 | 360 | 2.0 | 8.0 | 0.00 | 0.00 | 0.00 | 37 | 928.2 |
| 20260509162015 | 59 | 360 | 5.0 | 8.0 | 0.00 | 0.00 | 0.00 | 38 | 928.1 |
| 20260509161547 | 58 | 360 | 0.0 | 5.0 | 0.00 | 0.00 | 0.00 | 37 | 928.2 |
| 20260509161015 | 58 | 360 | 2.0 | 9.0 | 0.00 | 0.00 | 0.00 | 37 | 928.1 |
| 20260509160518 | 58 | 360 | 2.0 | 9.0 | 0.00 | 0.00 | 0.00 | 38 | 928.1 |
| 20260509160050 | 58 | 360 | 1.0 | 8.0 | 0.00 | 0.00 | 0.00 | 38 | 928.0 |
| 20260509155517 | 58 | 360 | 3.0 | 4.0 | 0.00 | 0.00 | 0.00 | 38 | 928.0 |
| 20260509155015 | 58 | 360 | 2.0 | 4.0 | 0.00 | 0.00 | 0.00 | 38 | 928.0 |
| 20260509154549 | 58 | 360 | 2.0 | 6.0 | 0.00 | 0.00 | 0.00 | 39 | 928.0 |
| 20260509154017 | 58 | 360 | 3.0 | 6.0 | 0.00 | 0.00 | 0.00 | 39 | 928.0 |
| 20260509153518 | 58 | 360 | 1.0 | 5.0 | 0.00 | 0.00 | 0.00 | 39 | 928.0 |
| 20260509153052 | 58 | 360 | 3.0 | 5.0 | 0.00 | 0.00 | 0.00 | 39 | 928.0 |
| 20260509152518 | 58 | 360 | 2.0 | 5.0 | 0.00 | 0.00 | 0.00 | 40 | 928.0 |
| 20260509152015 | 58 | 360 | 0.0 | 4.0 | 0.00 | 0.00 | 0.00 | 40 | 927.7 |
| 20260509151541 | 58 | 360 | 1.0 | 4.0 | 0.00 | 0.00 | 0.00 | 41 | 927.9 |
| 20260509151021 | 58 | 360 | 1.0 | 5.0 | 0.00 | 0.00 | 0.00 | 41 | 927.8 |
| 20260509150520 | 57 | 360 | 1.0 | 5.0 | 0.00 | 0.00 | 0.00 | 41 | 927.7 |
| 20260509150049 | 57 | 360 | 2.0 | 5.0 | 0.00 | 0.00 | 0.00 | 42 | 927.7 |
| 20260509145520 | 57 | 360 | 2.0 | 5.0 | 0.00 | 0.00 | 0.00 | 43 | 927.5 |
| 20260509145017 | 57 | 360 | 3.0 | 5.0 | 0.00 | 0.00 | 0.00 | 43 | 927.6 |
| 20260509144547 | 57 | 360 | 3.0 | 6.0 | 0.00 | 0.00 | 0.00 | 43 | 927.7 |
| 20260509144020 | 57 | 360 | 3.0 | 6.0 | 0.00 | 0.00 | 0.00 | 43 | 927.6 |
| 20260509143518 | 57 | 360 | 4.0 | 6.0 | 0.00 | 0.00 | 0.00 | 44 | 927.6 |
| 20260509143055 | 56 | 360 | 3.0 | 5.0 | 0.00 | 0.00 | 0.00 | 45 | 927.3 |
| 20260509142515 | 56 | 360 | 3.0 | 5.0 | 0.00 | 0.00 | 0.00 | 45 | 927.3 |
| 20260509142017 | 56 | 360 | 3.0 | 5.0 | 0.00 | 0.00 | 0.00 | 45 | 927.2 |
| 20260509141543 | 55 | 360 | 2.0 | 5.0 | 0.00 | 0.00 | 0.00 | 46 | 927.3 |
| 20260509141013 | 55 | 360 | 3.0 | 5.0 | 0.00 | 0.00 | 0.00 | 47 | 927.1 |
| 20260509140517 | 55 | 360 | 1.0 | 6.0 | 0.00 | 0.00 | 0.00 | 47 | 927.3 |
| 20260509140056 | 55 | 360 | 3.0 | 6.0 | 0.00 | 0.00 | 0.00 | 47 | 927.2 |
| 20260509135515 | 55 | 360 | 3.0 | 8.0 | 0.00 | 0.00 | 0.00 | 48 | 927.1 |
| 20260509135017 | 54 | 360 | 4.0 | 8.0 | 0.00 | 0.00 | 0.00 | 48 | 927.2 |
| 20260509134539 | 54 | 360 | 3.0 | 8.0 | 0.00 | 0.00 | 0.00 | 50 | 927.2 |
| 20260509134016 | 53 | 360 | 4.0 | 8.0 | 0.00 | 0.00 | 0.00 | 51 | 927.2 |
| 20260509133516 | 53 | 360 | 5.0 | 8.0 | 0.00 | 0.00 | 0.00 | 51 | 927.1 |
| 20260509133045 | 53 | 360 | 4.0 | 6.0 | 0.00 | 0.00 | 0.00 | 52 | 927.2 |
| 20260509132516 | 53 | 360 | 4.0 | 6.0 | 0.00 | 0.00 | 0.00 | 52 | 927.0 |
| 20260509132018 | 53 | 360 | 3.0 | 5.0 | 0.00 | 0.00 | 0.00 | 52 | 926.9 |
| 20260509131536 | 53 | 360 | 2.0 | 4.0 | 0.00 | 0.00 | 0.00 | 52 | 926.9 |
| 20260509131017 | 53 | 360 | 2.0 | 4.0 | 0.00 | 0.00 | 0.00 | 52 | 926.8 |
| 20260509130715 | 53 | 360 | 2.0 | 4.0 | 0.00 | 0.00 | 0.00 | 52 | 926.8 |
| 20260509130028 | 52 | 360 | 2.0 | 3.0 | 0.00 | 0.00 | 0.00 | 52 | 926.7 |
| 20260509125519 | 52 | 360 | 0.0 | 3.0 | 0.00 | 0.00 | 0.00 | 52 | 926.7 |
| 20260509125009 | 52 | 360 | 1.0 | 5.0 | 0.00 | 0.00 | 0.00 | 52 | 926.6 |
| 20260509124530 | 52 | 360 | 2.0 | 6.0 | 0.00 | 0.00 | 0.00 | 52 | 926.6 |
| 20260509124012 | 52 | 360 | 3.0 | 8.0 | 0.00 | 0.00 | 0.00 | 52 | 926.5 |
| 20260509123513 | 52 | 360 | 4.0 | 8.0 | 0.00 | 0.00 | 0.00 | 52 | 926.6 |
| 20260509123028 | 52 | 360 | 4.0 | 6.0 | 0.00 | 0.00 | 0.00 | 53 | 926.5 |
| 20260509122512 | 52 | 360 | 2.0 | 8.0 | 0.00 | 0.00 | 0.00 | 53 | 926.5 |
| 20260509122012 | 52 | 360 | 3.0 | 8.0 | 0.00 | 0.00 | 0.00 | 53 | 926.3 |
| 20260509121529 | 52 | 360 | 3.0 | 8.0 | 0.00 | 0.00 | 0.00 | 52 | 926.2 |
| 20260509121012 | 52 | 360 | 4.0 | 13.0 | 0.00 | 0.00 | 0.00 | 52 | 926.3 |
| 20260509120517 | 52 | 360 | 8.0 | 13.0 | 0.00 | 0.00 | 0.00 | 52 | 926.2 |
| 20260509120033 | 52 | 360 | 5.0 | 8.0 | 0.00 | 0.00 | 0.00 | 52 | 926.2 |
| 20260509115511 | 52 | 360 | 3.0 | 11.0 | 0.00 | 0.00 | 0.00 | 52 | 926.1 |
| 20260509115010 | 52 | 360 | 7.0 | 13.0 | 0.00 | 0.00 | 0.00 | 52 | 926.2 |
| 20260509114533 | 52 | 360 | 9.0 | 13.0 | 0.00 | 0.00 | 0.00 | 52 | 926.1 |
| 20260509114012 | 52 | 360 | 9.0 | 13.0 | 0.00 | 0.00 | 0.00 | 52 | 926.0 |
| 20260509113513 | 53 | 360 | 9.0 | 12.0 | 0.00 | 0.00 | 0.00 | 52 | 926.0 |
| 20260509113028 | 52 | 360 | 8.0 | 14.0 | 0.00 | 0.00 | 0.00 | 53 | 926.1 |
| 20260509112510 | 52 | 360 | 12.0 | 14.0 | 0.00 | 0.00 | 0.00 | 52 | 925.9 |
| 20260509112011 | 53 | 360 | 10.0 | 14.0 | 0.00 | 0.00 | 0.00 | 52 | 925.7 |
| 20260509111530 | 53 | 360 | 10.0 | 15.0 | 0.00 | 0.00 | 0.00 | 52 | 925.9 |
| 20260509111012 | 53 | 360 | 11.0 | 15.0 | 0.00 | 0.00 | 0.00 | 51 | 925.8 |
| 20260509110512 | 53 | 360 | 8.0 | 17.0 | 0.00 | 0.00 | 0.00 | 50 | 925.7 |
| 20260509110031 | 53 | 360 | 11.0 | 17.0 | 0.00 | 0.00 | 0.00 | 49 | 925.8 |
| 20260509105509 | 53 | 360 | 9.0 | 12.0 | 0.00 | 0.00 | 0.00 | 48 | 925.8 |
| 20260509105011 | 53 | 360 | 6.0 | 9.0 | 0.00 | 0.00 | 0.00 | 49 | 925.7 |
| 20260509104530 | 53 | 360 | 6.0 | 10.0 | 0.00 | 0.00 | 0.00 | 50 | 925.8 |
| 20260509104011 | 52 | 360 | 8.0 | 12.0 | 0.00 | 0.00 | 0.00 | 52 | 925.7 |
| 20260509103511 | 52 | 360 | 10.0 | 13.0 | 0.00 | 0.00 | 0.00 | 53 | 925.6 |
| 20260509103029 | 52 | 360 | 10.0 | 15.0 | 0.00 | 0.00 | 0.00 | 54 | 925.6 |
| 20260509102513 | 52 | 360 | 11.0 | 15.0 | 0.00 | 0.00 | 0.00 | 55 | 925.5 |
| 20260509102011 | 52 | 360 | 10.0 | 18.0 | 0.00 | 0.00 | 0.00 | 55 | 925.5 |
| 20260509101536 | 52 | 360 | 11.0 | 18.0 | 0.00 | 0.00 | 0.00 | 55 | 925.5 |
| 20260509101015 | 52 | 360 | 13.0 | 17.0 | 0.00 | 0.00 | 0.00 | 55 | 925.4 |
| 20260509100510 | 52 | 360 | 12.0 | 20.0 | 0.00 | 0.00 | 0.00 | 55 | 925.4 |
| 20260509100037 | 52 | 360 | 14.0 | 20.0 | 0.00 | 0.00 | 0.00 | 55 | 925.2 |
| 20260509095515 | 52 | 360 | 14.0 | 17.0 | 0.00 | 0.00 | 0.00 | 56 | 925.0 |
| 20260509095011 | 52 | 360 | 10.0 | 17.0 | 0.00 | 0.00 | 0.00 | 55 | 925.0 |
| 20260509094533 | 52 | 360 | 12.0 | 19.0 | 0.00 | 0.00 | 0.00 | 55 | 924.9 |
| 20260509094011 | 52 | 360 | 15.0 | 19.0 | 0.00 | 0.00 | 0.00 | 54 | 924.7 |
| 20260509093514 | 52 | 360 | 14.0 | 20.0 | 0.00 | 0.00 | 0.00 | 53 | 924.8 |
| 20260509093040 | 52 | 360 | 13.0 | 21.0 | 0.00 | 0.00 | 0.00 | 52 | 924.7 |
| 20260509092511 | 52 | 360 | 16.0 | 20.0 | 0.00 | 0.00 | 0.00 | 52 | 924.6 |
| 20260509092017 | 52 | 360 | 14.0 | 19.0 | 0.00 | 0.00 | 0.00 | 53 | 924.7 |
| 20260509091534 | 52 | 360 | 14.0 | 18.0 | 0.00 | 0.00 | 0.00 | 55 | 924.6 |
| 20260509091014 | 52 | 360 | 14.0 | 18.0 | 0.00 | 0.00 | 0.00 | 55 | 924.5 |
| 20260509090514 | 52 | 360 | 13.0 | 18.0 | 0.00 | 0.00 | 0.00 | 55 | 924.7 |
| 20260509090047 | 52 | 360 | 15.0 | 18.0 | 0.00 | 0.00 | 0.00 | 55 | 924.5 |
| 20260509085514 | 52 | 360 | 14.0 | 19.0 | 0.00 | 0.00 | 0.00 | 55 | 924.6 |
| 20260509085015 | 52 | 360 | 14.0 | 19.0 | 0.00 | 0.00 | 0.00 | 56 | 924.5 |
| 20260509084533 | 52 | 360 | 14.0 | 20.0 | 0.00 | 0.00 | 0.00 | 56 | 924.5 |
| 20260509084016 | 52 | 360 | 15.0 | 21.0 | 0.00 | 0.00 | 0.00 | 55 | 924.5 |
| 20260509083513 | 52 | 360 | 16.0 | 20.0 | 0.00 | 0.00 | 0.00 | 55 | 924.5 |
| 20260509083035 | 52 | 360 | 12.0 | 26.0 | 0.00 | 0.00 | 0.00 | 55 | 924.5 |
| 20260509082514 | 53 | 360 | 21.0 | 26.0 | 0.00 | 0.00 | 0.00 | 54 | 924.4 |
| 20260509082011 | 53 | 360 | 14.0 | 23.0 | 0.00 | 0.00 | 0.00 | 54 | 924.3 |
| 20260509081534 | 53 | 360 | 18.0 | 23.0 | 0.00 | 0.00 | 0.00 | 54 | 924.5 |
| 20260509081014 | 52 | 360 | 17.0 | 21.0 | 0.00 | 0.00 | 0.00 | 55 | 924.4 |
| 20260509080515 | 53 | 360 | 17.0 | 21.0 | 0.00 | 0.00 | 0.00 | 55 | 924.4 |
| 20260509080034 | 53 | 360 | 15.0 | 19.0 | 0.00 | 0.00 | 0.00 | 54 | 924.4 |
| 20260509075515 | 53 | 360 | 14.0 | 20.0 | 0.00 | 0.00 | 0.00 | 54 | 924.5 |
| 20260509075013 | 53 | 360 | 14.0 | 20.0 | 0.00 | 0.00 | 0.00 | 54 | 924.4 |
| 20260509074534 | 53 | 360 | 16.0 | 24.0 | 0.00 | 0.00 | 0.00 | 53 | 924.2 |
| 20260509074013 | 53 | 360 | 18.0 | 24.0 | 0.00 | 0.00 | 0.00 | 53 | 924.2 |
| 20260509073511 | 53 | 360 | 15.0 | 22.0 | 0.00 | 0.00 | 0.00 | 53 | 924.1 |
| 20260509073037 | 54 | 360 | 16.0 | 22.0 | 0.00 | 0.00 | 0.00 | 51 | 924.2 |
| 20260509072515 | 54 | 360 | 16.0 | 22.0 | 0.00 | 0.00 | 0.00 | 50 | 924.2 |
| 20260509072016 | 54 | 360 | 18.0 | 22.0 | 0.00 | 0.00 | 0.00 | 50 | 924.1 |
| 20260509071535 | 54 | 360 | 14.0 | 18.0 | 0.00 | 0.00 | 0.00 | 51 | 924.0 |
| 20260509071013 | 54 | 360 | 12.0 | 18.0 | 0.00 | 0.00 | 0.00 | 52 | 924.1 |
| 20260509070513 | 54 | 360 | 14.0 | 22.0 | 0.00 | 0.00 | 0.00 | 52 | 924.0 |
| 20260509070040 | 54 | 360 | 15.0 | 22.0 | 0.00 | 0.00 | 0.00 | 52 | 923.9 |
| 20260509065513 | 54 | 360 | 16.0 | 20.0 | 0.00 | 0.00 | 0.00 | 50 | 923.9 |
| 20260509065012 | 54 | 360 | 14.0 | 21.0 | 0.00 | 0.00 | 0.00 | 50 | 923.9 |
| 20260509064541 | 54 | 360 | 16.0 | 23.0 | 0.00 | 0.00 | 0.00 | 50 | 923.8 |
| 20260509064011 | 54 | 360 | 12.0 | 23.0 | 0.00 | 0.00 | 0.00 | 52 | 923.8 |
| 20260509063516 | 54 | 360 | 18.0 | 23.0 | 0.00 | 0.00 | 0.00 | 52 | 923.8 |
| 20260509063034 | 54 | 360 | 18.0 | 25.0 | 0.00 | 0.00 | 0.00 | 51 | 923.7 |
| 20260509062511 | 54 | 360 | 20.0 | 25.0 | 0.00 | 0.00 | 0.00 | 50 | 923.6 |
| 20260509062012 | 54 | 360 | 20.0 | 25.0 | 0.00 | 0.00 | 0.00 | 50 | 923.5 |
| 20260509061537 | 54 | 360 | 14.0 | 25.0 | 0.00 | 0.00 | 0.00 | 53 | 923.6 |
| 20260509061012 | 54 | 360 | 18.0 | 26.0 | 0.00 | 0.00 | 0.00 | 52 | 923.8 |
| 20260509060515 | 54 | 360 | 18.0 | 28.0 | 0.00 | 0.00 | 0.00 | 54 | 923.8 |
| 20260509060038 | 54 | 360 | 21.0 | 30.0 | 0.00 | 0.00 | 0.00 | 53 | 923.7 |
| 20260509055512 | 54 | 360 | 22.0 | 30.0 | 0.00 | 0.00 | 0.00 | 52 | 923.5 |
| 20260509055018 | 54 | 360 | 24.0 | 30.0 | 0.00 | 0.00 | 0.00 | 53 | 923.5 |
| 20260509054535 | 54 | 360 | 25.0 | 30.0 | 0.00 | 0.00 | 0.00 | 53 | 923.5 |
| 20260509054014 | 54 | 360 | 24.0 | 30.0 | 0.00 | 0.00 | 0.00 | 52 | 923.3 |
| 20260509053512 | 54 | 360 | 23.0 | 30.0 | 0.00 | 0.00 | 0.00 | 52 | 923.8 |
| 20260509053033 | 55 | 360 | 23.0 | 29.0 | 0.00 | 0.00 | 0.00 | 50 | 923.7 |
| 20260509052515 | 56 | 360 | 24.0 | 29.0 | 0.00 | 0.00 | 0.00 | 48 | 923.8 |
| 20260509052012 | 56 | 360 | 24.0 | 29.0 | 0.00 | 0.00 | 0.00 | 47 | 923.8 |
| 20260509051537 | 56 | 360 | 23.0 | 29.0 | 0.00 | 0.00 | 0.00 | 45 | 923.8 |
| 20260509051012 | 57 | 360 | 22.0 | 33.0 | 0.00 | 0.00 | 0.00 | 44 | 923.6 |
| 20260509050514 | 57 | 360 | 23.0 | 33.0 | 0.00 | 0.00 | 0.00 | 44 | 923.6 |
| 20260509050046 | 57 | 360 | 27.0 | 33.0 | 0.00 | 0.00 | 0.00 | 44 | 923.4 |
| 20260509045512 | 56 | 360 | 20.0 | 27.0 | 0.00 | 0.00 | 0.00 | 45 | 923.6 |
| 20260509045014 | 56 | 360 | 19.0 | 30.0 | 0.00 | 0.00 | 0.00 | 45 | 923.5 |
| 20260509044535 | 57 | 360 | 21.0 | 32.0 | 0.00 | 0.00 | 0.00 | 44 | 923.0 |
| 20260509044012 | 57 | 360 | 26.0 | 32.0 | 0.00 | 0.00 | 0.00 | 45 | 922.7 |
| 20260509043515 | 57 | 360 | 26.0 | 34.0 | 0.00 | 0.00 | 0.00 | 45 | 922.6 |
| 20260509043043 | 57 | 360 | 24.0 | 34.0 | 0.00 | 0.00 | 0.00 | 44 | 922.6 |
| 20260509042513 | 57 | 360 | 25.0 | 34.0 | 0.00 | 0.00 | 0.00 | 45 | 922.5 |
| 20260509042019 | 57 | 360 | 25.0 | 35.0 | 0.00 | 0.00 | 0.00 | 45 | 922.3 |
| 20260509041535 | 57 | 360 | 26.0 | 36.0 | 0.00 | 0.00 | 0.00 | 45 | 922.1 |
| 20260509041014 | 58 | 360 | 28.0 | 36.0 | 0.00 | 0.00 | 0.00 | 45 | 922.2 |
| 20260509040512 | 58 | 360 | 20.0 | 35.0 | 0.00 | 0.00 | 0.00 | 44 | 922.2 |
| 20260509040037 | 58 | 360 | 27.0 | 34.0 | 0.00 | 0.00 | 0.00 | 44 | 922.1 |
| 20260509035517 | 58 | 360 | 24.0 | 35.0 | 0.00 | 0.00 | 0.00 | 43 | 922.3 |
| 20260509035015 | 59 | 360 | 26.0 | 36.0 | 0.00 | 0.00 | 0.00 | 42 | 922.3 |
| 20260509034536 | 59 | 360 | 28.0 | 36.0 | 0.00 | 0.00 | 0.00 | 41 | 922.0 |
| 20260509034014 | 59 | 360 | 23.0 | 33.0 | 0.00 | 0.00 | 0.00 | 40 | 922.3 |
| 20260509033514 | 60 | 360 | 25.0 | 37.0 | 0.00 | 0.00 | 0.00 | 39 | 922.0 |
| 20260509033035 | 60 | 360 | 26.0 | 37.0 | 0.00 | 0.00 | 0.00 | 37 | 921.9 |
| 20260509032513 | 61 | 360 | 24.0 | 34.0 | 0.00 | 0.00 | 0.00 | 35 | 922.0 |
| 20260509032012 | 61 | 360 | 21.0 | 31.0 | 0.00 | 0.00 | 0.00 | 34 | 921.8 |
| 20260509031539 | 62 | 360 | 24.0 | 34.0 | 0.00 | 0.00 | 0.00 | 33 | 921.7 |
| 20260509031013 | 62 | 360 | 27.0 | 34.0 | 0.00 | 0.00 | 0.00 | 33 | 921.4 |
| 20260509030514 | 62 | 360 | 24.0 | 28.0 | 0.00 | 0.00 | 0.00 | 33 | 921.4 |
| 20260509030040 | 62 | 360 | 23.0 | 28.0 | 0.00 | 0.00 | 0.00 | 33 | 921.5 |
| 20260509025512 | 62 | 360 | 20.0 | 26.0 | 0.00 | 0.00 | 0.00 | 32 | 921.5 |
| 20260509025015 | 62 | 360 | 21.0 | 26.0 | 0.00 | 0.00 | 0.00 | 32 | 921.3 |
| 20260509024540 | 62 | 360 | 18.0 | 28.0 | 0.00 | 0.00 | 0.00 | 32 | 921.3 |
| 20260509024015 | 62 | 360 | 23.0 | 29.0 | 0.00 | 0.00 | 0.00 | 32 | 921.1 |
| 20260509023512 | 63 | 360 | 22.0 | 29.0 | 0.00 | 0.00 | 0.00 | 31 | 921.4 |
| 20260509023038 | 63 | 360 | 22.0 | 29.0 | 0.00 | 0.00 | 0.00 | 31 | 921.1 |
| 20260509022518 | 63 | 360 | 22.0 | 29.0 | 0.00 | 0.00 | 0.00 | 30 | 921.3 |
| 20260509022017 | 64 | 360 | 19.0 | 25.0 | 0.00 | 0.00 | 0.00 | 31 | 921.3 |
| 20260509021538 | 65 | 360 | 18.0 | 25.0 | 0.00 | 0.00 | 0.00 | 29 | 921.1 |
| 20260509021012 | 65 | 360 | 20.0 | 27.0 | 0.00 | 0.00 | 0.00 | 28 | 920.7 |
| 20260509020515 | 66 | 360 | 20.0 | 27.0 | 0.00 | 0.00 | 0.00 | 27 | 920.8 |
| 20260509020035 | 67 | 360 | 18.0 | 23.0 | 0.00 | 0.00 | 0.00 | 23 | 920.7 |
| 20260509015515 | 67 | 360 | 18.0 | 23.0 | 0.00 | 0.00 | 0.00 | 23 | 920.7 |
| 20260509015015 | 67 | 360 | 17.0 | 25.0 | 0.00 | 0.00 | 0.00 | 22 | 920.5 |
| 20260509014533 | 68 | 360 | 19.0 | 25.0 | 0.00 | 0.00 | 0.00 | 22 | 920.4 |
| 20260509014012 | 68 | 360 | 16.0 | 26.0 | 0.00 | 0.00 | 0.00 | 22 | 920.6 |
| 20260509013514 | 68 | 360 | 21.0 | 26.0 | 0.00 | 0.00 | 0.00 | 22 | 920.7 |
| 20260509013041 | 69 | 360 | 18.0 | 28.0 | 0.00 | 0.00 | 0.00 | 22 | 920.5 |
| 20260509012515 | 69 | 360 | 20.0 | 28.0 | 0.00 | 0.00 | 0.00 | 21 | 920.6 |
| 20260509012013 | 69 | 360 | 18.0 | 24.0 | 0.00 | 0.00 | 0.00 | 20 | 920.5 |
| 20260509011542 | 69 | 360 | 20.0 | 25.0 | 0.00 | 0.00 | 0.00 | 18 | 920.5 |
| 20260509011019 | 69 | 360 | 16.0 | 24.0 | 0.00 | 0.00 | 0.00 | 19 | 920.6 |
| 20260509010515 | 70 | 360 | 18.0 | 24.0 | 0.00 | 0.00 | 0.00 | 19 | 920.6 |
| 20260509010035 | 70 | 360 | 18.0 | 25.0 | 0.00 | 0.00 | 0.00 | 19 | 920.6 |
| 20260509005517 | 70 | 360 | 21.0 | 25.0 | 0.00 | 0.00 | 0.00 | 19 | 920.5 |
| 20260509005014 | 70 | 360 | 17.0 | 23.0 | 0.00 | 0.00 | 0.00 | 19 | 920.6 |
| 20260509004546 | 70 | 360 | 15.0 | 23.0 | 0.00 | 0.00 | 0.00 | 19 | 920.7 |
| 20260509004014 | 70 | 360 | 18.0 | 25.0 | 0.00 | 0.00 | 0.00 | 19 | 920.3 |
| 20260509003511 | 70 | 360 | 17.0 | 25.0 | 0.00 | 0.00 | 0.00 | 19 | 920.6 |
| 20260509003037 | 70 | 360 | 17.0 | 24.0 | 0.00 | 0.00 | 0.00 | 19 | 920.7 |
| 20260509002515 | 70 | 360 | 17.0 | 26.0 | 0.00 | 0.00 | 0.00 | 18 | 920.5 |
| 20260509002021 | 70 | 360 | 17.0 | 26.0 | 0.00 | 0.00 | 0.00 | 18 | 920.7 |
| 20260509001538 | 70 | 360 | 21.0 | 26.0 | 0.00 | 0.00 | 0.00 | 18 | 920.8 |
| 20260509001012 | 71 | 360 | 20.0 | 26.0 | 0.00 | 0.00 | 0.00 | 18 | 920.7 |
| 20260509000515 | 71 | 360 | 17.0 | 24.0 | 0.00 | 0.00 | 0.00 | 18 | 920.8 |
| 20260509000044 | 71 | 360 | 20.0 | 25.0 | 0.00 | 0.00 | 0.00 | 17 | 920.6 |
| 20260508235514 | 72 | 360 | 20.0 | 25.0 | 0.00 | 0.00 | 0.00 | 16 | 920.5 |
| 20260508235016 | 72 | 360 | 14.0 | 25.0 | 0.00 | 0.00 | 0.00 | 15 | 920.5 |
| 20260508234538 | 72 | 360 | 20.0 | 25.0 | 0.00 | 0.00 | 0.00 | 14 | 920.6 |
| 20260508234012 | 72 | 360 | 19.0 | 25.0 | 0.00 | 0.00 | 0.00 | 13 | 920.5 |
| 20260508233514 | 72 | 360 | 19.0 | 28.0 | 0.00 | 0.00 | 0.00 | 14 | 920.6 |
| 20260508233038 | 72 | 360 | 21.0 | 28.0 | 0.00 | 0.00 | 0.00 | 13 | 920.4 |
| 20260508232514 | 73 | 360 | 22.0 | 27.0 | 0.00 | 0.00 | 0.00 | 12 | 920.4 |
| 20260508232012 | 73 | 360 | 16.0 | 25.0 | 0.00 | 0.00 | 0.00 | 13 | 920.6 |
| 20260508231550 | 73 | 360 | 23.0 | 25.0 | 0.00 | 0.00 | 0.00 | 12 | 920.4 |
| 20260508231012 | 73 | 360 | 18.0 | 28.0 | 0.00 | 0.00 | 0.00 | 12 | 920.6 |
| 20260508230517 | 73 | 360 | 20.0 | 28.0 | 0.00 | 0.00 | 0.00 | 11 | 920.5 |
| 20260508230034 | 73 | 360 | 19.0 | 24.0 | 0.00 | 0.00 | 0.00 | 11 | 920.5 |
| 20260508225515 | 72 | 360 | 15.0 | 26.0 | 0.00 | 0.00 | 0.00 | 11 | 920.8 |
| 20260508225013 | 73 | 360 | 19.0 | 29.0 | 0.00 | 0.00 | 0.00 | 11 | 920.8 |
| 20260508224540 | 73 | 360 | 23.0 | 31.0 | 0.00 | 0.00 | 0.00 | 10 | 920.5 |
| 20260508224015 | 74 | 360 | 22.0 | 31.0 | 0.00 | 0.00 | 0.00 | 9 | 920.5 |
| 20260508223512 | 74 | 360 | 17.0 | 30.0 | 0.00 | 0.00 | 0.00 | 10 | 920.7 |
| 20260508223039 | 74 | 360 | 23.0 | 30.0 | 0.00 | 0.00 | 0.00 | 10 | 920.6 |
| 20260508222514 | 75 | 360 | 20.0 | 27.0 | 0.00 | 0.00 | 0.00 | 9 | 920.7 |
| 20260508222017 | 73 | 360 | 13.0 | 30.0 | 0.00 | 0.00 | 0.00 | 10 | 920.8 |
| 20260508221539 | 74 | 360 | 24.0 | 30.0 | 0.00 | 0.00 | 0.00 | 9 | 920.7 |
| 20260508221012 | 74 | 360 | 19.0 | 30.0 | 0.00 | 0.00 | 0.00 | 10 | 920.7 |
| 20260508220514 | 73 | 360 | 22.0 | 30.0 | 0.00 | 0.00 | 0.00 | 11 | 920.6 |
| 20260508220043 | 74 | 360 | 18.0 | 28.0 | 0.00 | 0.00 | 0.00 | 10 | 920.8 |
| 20260508215516 | 74 | 360 | 22.0 | 33.0 | 0.00 | 0.00 | 0.00 | 11 | 920.8 |
| 20260508215014 | 73 | 360 | 23.0 | 33.0 | 0.00 | 0.00 | 0.00 | 11 | 920.9 |
| 20260508214554 | 73 | 360 | 20.0 | 25.0 | 0.00 | 0.00 | 0.00 | 10 | 920.8 |
| 20260508214013 | 73 | 360 | 19.0 | 28.0 | 0.00 | 0.00 | 0.00 | 10 | 920.9 |
| 20260508213516 | 74 | 360 | 19.0 | 29.0 | 0.00 | 0.00 | 0.00 | 10 | 921.0 |
| 20260508213046 | 74 | 360 | 19.0 | 34.0 | 0.00 | 0.00 | 0.00 | 10 | 921.0 |
| 20260508212516 | 74 | 360 | 26.0 | 34.0 | 0.00 | 0.00 | 0.00 | 10 | 920.8 |
| 20260508212024 | 74 | 360 | 19.0 | 30.0 | 0.00 | 0.00 | 0.00 | 10 | 921.2 |
| 20260508211538 | 75 | 360 | 22.0 | 30.0 | 0.00 | 0.00 | 0.00 | 10 | 921.1 |
| 20260508211020 | 74 | 360 | 18.0 | 30.0 | 0.00 | 0.00 | 0.00 | 10 | 921.0 |
| 20260508210518 | 73 | 360 | 21.0 | 32.0 | 0.00 | 0.00 | 0.00 | 10 | 921.0 |
| 20260508210042 | 73 | 360 | 21.0 | 32.0 | 0.00 | 0.00 | 0.00 | 10 | 921.1 |
| 20260508205519 | 75 | 360 | 25.0 | 40.0 | 0.00 | 0.00 | 0.00 | 8 | 921.2 |
| 20260508205018 | 74 | 360 | 19.0 | 34.0 | 0.00 | 0.00 | 0.00 | 9 | 921.2 |
| 20260508204541 | 74 | 360 | 22.0 | 34.0 | 0.00 | 0.00 | 0.00 | 10 | 921.3 |
| 20260508204017 | 74 | 360 | 25.0 | 32.0 | 0.00 | 0.00 | 0.00 | 9 | 920.9 |
| 20260508203517 | 74 | 360 | 19.0 | 26.0 | 0.00 | 0.00 | 0.00 | 11 | 921.3 |
| 20260508203057 | 74 | 360 | 16.0 | 32.0 | 0.00 | 0.00 | 0.00 | 10 | 921.4 |
| 20260508202517 | 74 | 360 | 23.0 | 32.0 | 0.00 | 0.00 | 0.00 | 10 | 921.4 |
| 20260508202015 | 73 | 360 | 16.0 | 25.0 | 0.00 | 0.00 | 0.00 | 11 | 921.3 |
| 20260508201555 | 73 | 360 | 8.0 | 30.0 | 0.00 | 0.00 | 0.00 | 11 | 921.4 |
| 20260508201018 | 74 | 360 | 23.0 | 38.0 | 0.00 | 0.00 | 0.00 | 10 | 921.4 |
| 20260508200520 | 74 | 360 | 27.0 | 38.0 | 0.00 | 0.00 | 0.00 | 9 | 921.2 |
| 20260508200049 | 73 | 360 | 19.0 | 28.0 | 0.00 | 0.00 | 0.00 | 11 | 921.3 |
| 20260508195517 | 73 | 360 | 16.0 | 30.0 | 0.00 | 0.00 | 0.00 | 11 | 921.4 |
| 20260508195016 | 73 | 360 | 20.0 | 26.0 | 0.00 | 0.00 | 0.00 | 12 | 921.4 |
| 20260508194549 | 73 | 360 | 17.0 | 26.0 | 0.00 | 0.00 | 0.00 | 12 | 921.4 |
| 20260508194017 | 73 | 360 | 20.0 | 27.0 | 0.00 | 0.00 | 0.00 | 12 | 921.5 |
| 20260508193519 | 72 | 360 | 15.0 | 30.0 | 0.00 | 0.00 | 0.00 | 11 | 921.6 |
| 20260508193053 | 72 | 360 | 19.0 | 34.0 | 0.00 | 0.00 | 0.00 | 9 | 921.5 |
| 20260508192515 | 72 | 360 | 26.0 | 34.0 | 0.00 | 0.00 | 0.00 | 9 | 921.3 |
| 20260508192018 | 71 | 360 | 16.0 | 31.0 | 0.00 | 0.00 | 0.00 | 11 | 921.6 |
| 20260508191550 | 72 | 360 | 27.0 | 31.0 | 0.00 | 0.00 | 0.00 | 10 | 921.3 |
| 20260508191017 | 72 | 360 | 16.0 | 26.0 | 0.00 | 0.00 | 0.00 | 9 | 921.7 |
| 20260508190518 | 72 | 360 | 20.0 | 29.0 | 0.00 | 0.00 | 0.00 | 10 | 921.7 |
| 20260508190052 | 72 | 360 | 12.0 | 29.0 | 0.00 | 0.00 | 0.00 | 11 | 922.1 |
| 20260508185520 | 71 | 360 | 15.0 | 29.0 | 0.00 | 0.00 | 0.00 | 12 | 922.1 |
| 20260508185016 | 71 | 360 | 15.0 | 34.0 | 0.00 | 0.00 | 0.00 | 11 | 922.1 |
| 20260508184547 | 71 | 360 | 19.0 | 34.0 | 0.00 | 0.00 | 0.00 | 12 | 922.0 |
| 20260508184018 | 72 | 360 | 19.0 | 26.0 | 0.00 | 0.00 | 0.00 | 11 | 921.9 |
| 20260508183516 | 71 | 360 | 16.0 | 25.0 | 0.00 | 0.00 | 0.00 | 16 | 922.2 |
| 20260508183053 | 71 | 360 | 15.0 | 24.0 | 0.00 | 0.00 | 0.00 | 14 | 922.1 |
| 20260508182516 | 71 | 360 | 18.0 | 27.0 | 0.00 | 0.00 | 0.00 | 18 | 922.0 |
| 20260508182024 | 71 | 360 | 17.0 | 27.0 | 0.00 | 0.00 | 0.00 | 16 | 922.2 |
| 20260508181609 | 70 | 360 | 10.0 | 24.0 | 0.00 | 0.00 | 0.00 | 16 | 922.3 |